• En Estados Unidos
  • Lista de países
  • Para 7 días
  • Temperatura del agua
  • Mapa Satelital
  • El tiempo en el mapa
  • Informadores
  • user-avatar
    Iniciar sesión

    Tiempo cada hora La Massana

    Hoy, 17 Enero, Miércoles

    Tiempo Temperatura Precipitaciones Viento Presión Humedad
    00:00 -2°C° 0 mm 4 mps 608 mmHg 83%
    01:00 -2°C° 0,1 mm 4 mps 608 mmHg 85%
    02:00 -3°C° 0,1 mm 4 mps 608 mmHg 86%
    03:00 -3°C° 0,1 mm 4 mps 608 mmHg 88%
    04:00 -3°C° 0,1 mm 4 mps 608 mmHg 87%
    05:00 -3°C° 0,1 mm 4 mps 609 mmHg 86%
    06:00 -3°C° 0 mm 4 mps 609 mmHg 86%
    07:00 -3°C° 0,1 mm 4 mps 609 mmHg 82%
    08:00 -3°C° 0,1 mm 4 mps 610 mmHg 79%
    09:00 -3°C° 0,1 mm 4 mps 610 mmHg 76%
    10:00 -2°C° 0 mm 5 mps 611 mmHg 73%
    11:00 -2°C° 0 mm 5 mps 611 mmHg 70%
    12:00 -1°C° 0 mm 5 mps 612 mmHg 67%
    13:00 -1°C° 0 mm 5 mps 612 mmHg 66%
    14:00 -1°C° 0 mm 4 mps 612 mmHg 66%
    15:00 -1°C° 0 mm 4 mps 612 mmHg 65%
    16:00 -3°C° 0 mm 4 mps 612 mmHg 69%
    17:00 -4°C° 0 mm 3 mps 612 mmHg 73%
    18:00 -6°C° 0 mm 3 mps 612 mmHg 77%
    19:00 -6°C° 0 mm 3 mps 612 mmHg 78%
    20:00 -6°C° 0 mm 3 mps 612 mmHg 78%
    21:00 -6°C° 0 mm 2 mps 612 mmHg 78%
    22:00 -6°C° 0 mm 2 mps 612 mmHg 77%
    23:00 -6°C° 0 mm 2 mps 612 mmHg 77%

    Mañana, 18 Enero, Jueves

    Tiempo Temperatura Precipitaciones Viento Presión Humedad
    00:00 -6°C° 0 mm 2 mps 612 mmHg 76%
    01:00 -6°C° 0 mm 2 mps 612 mmHg 75%
    02:00 -4°C° 0 mm 1 mps 612 mmHg 73%
    03:00 -4°C° 0 mm 1 mps 612 mmHg 72%
    04:00 -4°C° 0 mm 1 mps 612 mmHg 72%
    05:00 -4°C° 0 mm 1 mps 612 mmHg 71%
    06:00 -4°C° 0 mm 1 mps 612 mmHg 71%
    07:00 -2°C° 0 mm 1 mps 612 mmHg 69%
    08:00 -1°C° 0 mm 1 mps 613 mmHg 68%
    09:00 0°C° 0 mm 1 mps 613 mmHg 66%
    10:00 +1°C° 0 mm 1 mps 613 mmHg 65%
    11:00 +3°C° 0 mm 1 mps 614 mmHg 63%
    12:00 +4°C° 0 mm 1 mps 614 mmHg 62%
    13:00 +4°C° 0 mm 1 mps 614 mmHg 64%
    14:00 +4°C° 0 mm 1 mps 613 mmHg 65%
    15:00 +4°C° 0 mm 1 mps 613 mmHg 66%
    16:00 +2°C° 0 mm 1 mps 612 mmHg 71%
    17:00 +1°C° 0 mm 1 mps 611 mmHg 76%
    18:00 -3°C° 0 mm 2 mps 610 mmHg 81%
    19:00 -3°C° 0 mm 2 mps 610 mmHg 79%
    20:00 -3°C° 0 mm 2 mps 610 mmHg 77%
    21:00 -3°C° 0 mm 2 mps 610 mmHg 76%
    22:00 -3°C° 0 mm 2 mps 610 mmHg 76%
    23:00 -3°C° 0 mm 2 mps 610 mmHg 76%

    Pasado mañana, 19 Enero, Viernes

    Tiempo Temperatura Precipitaciones Viento Presión Humedad
    00:00 -4°C° 0 mm 2 mps 610 mmHg 76%
    01:00 -3°C° 0 mm 2 mps 609 mmHg 77%
    02:00 -3°C° 0 mm 2 mps 609 mmHg 79%
    03:00 -3°C° 0 mm 2 mps 609 mmHg 81%
    04:00 -3°C° 0 mm 2 mps 609 mmHg 81%
    05:00 -3°C° 0 mm 2 mps 609 mmHg 81%
    06:00 -3°C° 0 mm 2 mps 609 mmHg 82%
    07:00 -2°C° 0 mm 2 mps 609 mmHg 81%
    08:00 -1°C° 0 mm 2 mps 610 mmHg 81%
    09:00 +1°C° 0 mm 2 mps 610 mmHg 80%
    10:00 +2°C° 0 mm 2 mps 611 mmHg 77%
    11:00 +2°C° 0 mm 2 mps 611 mmHg 73%
    12:00 +2°C° 0 mm 3 mps 611 mmHg 70%
    13:00 +2°C° 0 mm 3 mps 611 mmHg 69%
    14:00 +2°C° 0 mm 3 mps 611 mmHg 68%
    15:00 +1°C° 0 mm 3 mps 611 mmHg 67%
    16:00 0°C° 0 mm 3 mps 610 mmHg 71%
    17:00 -2°C° 0 mm 3 mps 610 mmHg 75%
    18:00 -5°C° 0 mm 3 mps 609 mmHg 79%
    19:00 -5°C° 0 mm 3 mps 610 mmHg 77%
    20:00 -5°C° 0 mm 3 mps 610 mmHg 74%
    21:00 -5°C° 0 mm 3 mps 610 mmHg 72%
    22:00 -5°C° 0 mm 3 mps 610 mmHg 75%
    23:00 -5°C° 0 mm 3 mps 611 mmHg 77%

    20 Enero, Sábado

    Tiempo Temperatura Precipitaciones Viento Presión Humedad
    00:00 -5°C° 0 mm 3 mps 611 mmHg 80%
    01:00 -5°C° 0 mm 3 mps 611 mmHg 80%
    02:00 -6°C° 0 mm 3 mps 610 mmHg 80%
    03:00 -5°C° 0 mm 2 mps 610 mmHg 81%
    04:00 -5°C° 0 mm 2 mps 610 mmHg 80%
    05:00 -5°C° 0 mm 2 mps 610 mmHg 79%
    06:00 -5°C° 0 mm 2 mps 610 mmHg 78%
    07:00 -4°C° 0 mm 2 mps 610 mmHg 76%
    08:00 -4°C° 0 mm 2 mps 611 mmHg 74%
    09:00 -3°C° 0 mm 2 mps 611 mmHg 71%
    10:00 -1°C° 0 mm 2 mps 611 mmHg 67%
    11:00 +1°C° 0 mm 2 mps 611 mmHg 63%
    12:00 +2°C° 0 mm 3 mps 612 mmHg 58%
    13:00 +1°C° 0,5 mm 3 mps 611 mmHg 64%
    14:00 +1°C° 0,5 mm 3 mps 610 mmHg 70%
    15:00 0°C° 0,5 mm 3 mps 609 mmHg 76%
    16:00 0°C° 0,8 mm 3 mps 609 mmHg 80%
    17:00 -1°C° 0,8 mm 4 mps 609 mmHg 84%
    18:00 -1°C° 0,8 mm 5 mps 608 mmHg 88%
    19:00 -1°C° 0,5 mm 5 mps 609 mmHg 89%
    20:00 -1°C° 0,5 mm 5 mps 609 mmHg 90%
    21:00 -1°C° 0,5 mm 5 mps 609 mmHg 91%
    22:00 -1°C° 0,5 mm 4 mps 610 mmHg 91%
    23:00 -1°C° 0,5 mm 4 mps 610 mmHg 91%

    21 Enero, Domingo

    Tiempo Temperatura Precipitaciones Viento Presión Humedad
    00:00 0°C° 0,5 mm 4 mps 610 mmHg 91%
    01:00 0°C° 0,7 mm 4 mps 611 mmHg 92%
    02:00 0°C° 0,7 mm 4 mps 611 mmHg 92%
    03:00 0°C° 0,7 mm 4 mps 611 mmHg 92%
    04:00 +1°C° 0,5 mm 3 mps 612 mmHg 92%
    05:00 +1°C° 0,5 mm 3 mps 612 mmHg 92%
    06:00 +1°C° 0,5 mm 3 mps 612 mmHg 91%
    07:00 +1°C° 0,4 mm 3 mps 613 mmHg 90%
    08:00 +1°C° 0,4 mm 3 mps 614 mmHg 90%
    09:00 +1°C° 0,4 mm 3 mps 614 mmHg 89%
    10:00 +2°C° 0,1 mm 3 mps 615 mmHg 85%
    11:00 +3°C° 0,1 mm 3 mps 615 mmHg 82%
    12:00 +3°C° 0,1 mm 3 mps 616 mmHg 78%
    13:00 +3°C° 0 mm 3 mps 616 mmHg 77%
    14:00 +3°C° 0 mm 3 mps 616 mmHg 76%
    15:00 +3°C° 0 mm 3 mps 616 mmHg 75%
    16:00 +2°C° 0 mm 3 mps 615 mmHg 77%
    17:00 +1°C° 0 mm 3 mps 615 mmHg 80%
    18:00 0°C° 0 mm 3 mps 615 mmHg 82%
    19:00 0°C° 0 mm 3 mps 615 mmHg 83%
    20:00 -1°C° 0 mm 2 mps 615 mmHg 83%
    21:00 -1°C° 0 mm 2 mps 615 mmHg 84%
    22:00 -1°C° 0 mm 2 mps 615 mmHg 84%
    23:00 -1°C° 0 mm 2 mps 615 mmHg 83%

    22 Enero, Lunes

    Tiempo Temperatura Precipitaciones Viento Presión Humedad
    00:00 -2°C° 0 mm 2 mps 615 mmHg 83%
    01:00 -2°C° 0 mm 2 mps 615 mmHg 83%
    02:00 -2°C° 0 mm 2 mps 615 mmHg 82%
    03:00 -2°C° 0 mm 2 mps 615 mmHg 81%
    04:00 -2°C° 0 mm 2 mps 615 mmHg 81%
    05:00 -2°C° 0 mm 2 mps 615 mmHg 80%
    06:00 -2°C° 0 mm 2 mps 615 mmHg 80%
    07:00 -1°C° 0 mm 2 mps 615 mmHg 78%
    08:00 +1°C° 0 mm 2 mps 616 mmHg 77%
    09:00 +2°C° 0 mm 2 mps 617 mmHg 75%
    10:00 +3°C° 0 mm 2 mps 617 mmHg 72%
    11:00 +4°C° 0 mm 2 mps 617 mmHg 70%
    12:00 +6°C° 0 mm 2 mps 618 mmHg 67%
    13:00 +6°C° 0 mm 2 mps 618 mmHg 68%
    14:00 +5°C° 0 mm 2 mps 617 mmHg 69%
    15:00 +5°C° 0 mm 2 mps 617 mmHg 71%
    16:00 +4°C° 0 mm 2 mps 616 mmHg 76%
    17:00 +2°C° 0 mm 2 mps 616 mmHg 82%
    18:00 -1°C° 0 mm 2 mps 615 mmHg 87%
    19:00 -1°C° 0 mm 2 mps 615 mmHg 83%
    20:00 -2°C° 0 mm 2 mps 615 mmHg 80%
    21:00 -2°C° 0 mm 2 mps 615 mmHg 76%
    22:00 -2°C° 0 mm 2 mps 615 mmHg 73%
    23:00 -2°C° 0 mm 2 mps 615 mmHg 70%
    Mostrar más